Regional Weather Roundup
Issued by NWS

Home | Current Version | Previous Version | Graphics & Text | Print | Product List | Glossary On
Versions: 1 2 3 4 5 6 7 8 9 10 11 12 13 14 15 16 17 18 19 20 21 22 23 24 25 26 27 28 29 30 31 32 33 34 35 36 37 38 39 40 41 42 43 44 45 46 47 48 49 50
000
ASUS45 KPSR 031710
RWRAZ

ARIZONA HOURLY REGIONAL WEATHER ROUNDUP
NATIONAL WEATHER SERVICE PHOENIX AZ
1000 AM MST SAT DEC 03 2016

NOTE: FAIR INDICATES FEW OR NO CLOUDS BELOW 12,000 FEET WITH NO
SIGNIFICANT WEATHER AND/OR OBSTRUCTIONS TO VISIBILITY.

AZZ001>003-036-031800-
NORTHWEST ARIZONA

CITY           SKY/WX    TMP DP  RH WIND       PRES   REMARKS
BULLHEAD CITY  SUNNY     52  16  24 N31G38    30.20S
KINGMAN        SUNNY     39  12  33 NE13      30.19R WCI  31
$$

AZZ004>008-015-016-018-031800-
NORTH CENTRAL ARIZONA

CITY           SKY/WX    TMP DP  RH WIND       PRES   REMARKS
GRAND CANYON   SUNNY     30  11  45 E17G24    30.17R WCI  18
PRESCOTT       SUNNY     37  20  50 NW9       30.08S WCI  30
FLAGSTAFF      SUNNY     31  17  56 NE15G28   30.10R WCI  20
PAYSON         SUNNY     41  21  45 N12       30.05S
PAGE           SUNNY     36  10  34 CALM      30.23R
$$

AZZ009>014-017-031800-
NORTHEAST ARIZONA

CITY           SKY/WX    TMP DP  RH WIND       PRES   REMARKS
WINSLOW        SUNNY     35  17  47 NW8       30.17S WCI  29
SAINT JOHNS    SUNNY     31  23  72 CALM      30.12R
SHOW LOW       PTSUNNY   25  19  80 N13       30.12R WCI  13
$$

AZZ023-031800-
GREATER PHOENIX AREA

CITY           SKY/WX    TMP DP  RH WIND       PRES   REMARKS
PHOENIX        MOSUNNY   55  25  31 CALM      29.98R
BUCKEYE        SUNNY     57  23  26 N9        30.02R
GLENDALE       SUNNY     61  23  23 N12       30.00
LUKE AFB       SUNNY     60  24  25 N16       29.98R
DEER VALLEY    SUNNY     58  22  24 N13       29.98R
SCOTTSDALE     SUNNY     57  25  29 W3        29.99R
MESA-FALCON    SUNNY    N/A N/A N/A N17       29.96
MESA-GATEWAY   MOSUNNY   57  27  30 N12       29.98R
CHANDLER       SUNNY     57  25  28 N17       29.98R
$$

AZZ027-028-031800-
SOUTHWEST MARICOPA COUNTY AND PINAL COUNTY

CITY           SKY/WX    TMP DP  RH WIND       PRES   REMARKS
CASA GRANDE    NOT AVBL
GILA BEND      SUNNY     52  27  37 S1          N/A
$$

AZZ503-504-507>509-031800-
SOUTHEAST ARIZONA

CITY           SKY/WX    TMP DP  RH WIND       PRES   REMARKS
TUCSON         SUNNY     49  24  37 VRB5      29.98R
DAVIS-MONTHAN  SUNNY     47  24  39 NW5       29.96R
RYAN FIELD     SUNNY     48  27  43 W5        29.98
NOGALES        SUNNY     50  37  61 NE14G21   29.92R
SIERRA VISTA   MOSUNNY   44  36  75 SW1       29.96R
DOUGLAS        MOSUNNY   47  41  80 CALM      29.95R
SAFFORD        SUNNY     52  39  61 SE9       29.97R
$$

AZZ020-021-025-026-031-031800-
SOUTHWEST ARIZONA

CITY           SKY/WX    TMP DP  RH WIND       PRES   REMARKS
YUMA           SUNNY     58  15  18 N20G28    30.07R
$$

CAZ031-033-041-043-047-048-061-031800-
SOUTHERN CALIFORNIA

CITY           SKY/WX    TMP DP  RH WIND       PRES   REMARKS
DOWNTOWN L.A.  SUNNY     52  28  39 CALM      30.13R
L.A. AIRPORT   SUNNY     58  18  21 NW7       30.14R
SAN DIEGO      MOSUNNY   58  17  20 CALM      30.13R
BURBANK        SUNNY     56  11  16 CALM      30.13R
ONTARIO        SUNNY     56  12  17 VRB3      30.13R
RIVERSIDE      SUNNY     59  12  15 E8        30.13R
PALM SPRINGS   SUNNY     62   5  10 N16G24    30.19R
EL CENTRO NAS  SUNNY     61  19  19 N20       30.14R
IMPERIAL       SUNNY     61  28  28 N16       30.11R
BLYTHE         SUNNY     57  14  18 N26G37    30.12R
NEEDLES        SUNNY     55  15  20 N24G35    30.18R
$$

NVZ020-UTZ003-031800-
SOUTHERN NEVADA-UTAH

CITY           SKY/WX    TMP DP  RH WIND       PRES   REMARKS
LAS VEGAS      SUNNY     48   7  18 N13       30.25R
SALT LAKE CITY CLOUDY    30  21  69 S10       30.30S WCI  21
$$

NMZ009-TXZ055-031800-
NEW MEXICO-WEST TEXAS

CITY           SKY/WX    TMP DP  RH WIND       PRES   REMARKS
ALBUQUERQUE    PTSUNNY   36  28  73 N9        30.12S WCI  29
EL PASO        RAIN      39  35  86 N17       30.01R WCI  30
$$


........................KEY........................
SKY/WX - SKY CONDITION/WEATHER
TMP    - TEMPERATURE IN FAHRENHEIT
DP     - DEW POINT IN FAHRENHEIT
RH     - RELATIVE HUMIDITY IN PERCENT
WIND   - DIRECTION AND SPEED IN MILES PER HOUR (MPH)
VRB    - VARIABLE WIND DIRECTION
PRES   - MEAN SEA LEVEL PRESSURE IN INCHES OF MERCURY
         F - FALLING PRESSURE   R - RISING PRESSURE
         S - STEADY PRESSURE
VSB    - VISIBILITY IN MILES
HX     - HEAT INDEX IN FAHRENHEIT
WCI    - WIND CHILL INDEX IN FAHRENHEIT
TC     - TEMPERATURE IN CELSIUS WHICH IS ALSO KNOWN AS
         TEMPERATURE IN CENTIGRADE
AFB    - AIR FORCE BASE
         LUKE AFB IS LUKE AIR FORCE BASE
         DAVIS-MONTHAN IS DAVIS-MONTHAN AIR FORCE BASE
NAS    - NAVAL AIR STATION
         EL CENTRO NAS IS EL CENTRO NAVAL AIR STATION
N/A    - NOT AVAILABLE




USA.gov is the U.S. government's official web portal to all federal, state and local government web resources and services.